Theta_e
296 296 295 295 295 295 295 295 295 295 295 295 295 295 295 295 295 294 294 294 294 294 294 294 294 294 294 294 293 293 293 293 293 293 293 294 294 294 294 294 294 294 294 294 296 300 304 306 308 310 311 312 313 313 314 315 315 316 316 317 317 317 318 320 320 321 321 321 322 322 323 324 325 327 329 330 330 329 326 325 326 330 333 335 336
296 296 295 295 296 295 295 294 294 295 294 294 295 295 295 295 295 294 293 293 293 293 293 293 293 293 293 293 293 293 293 292 292 293 293 293 293 294 294 294 294 294 294 294 295 296 298 301 304 306 308 310 311 312 313 314 314 314 315 315 316 316 317 318 319 319 320 320 320 321 322 322 322 323 325 327 329 330 329 328 326 326 330 333 335
295 296 295 295 296 295 295 294 294 294 294 294 294 295 295 295 294 294 293 293 293 293 293 293 293 292 292 292 292 292 292 292 292 292 292 293 293 293 294 294 294 294 294 295 295 296 296 298 299 301 305 308 309 311 311 312 312 312 313 314 315 316 316 317 317 318 318 318 318 319 320 322 322 321 322 324 326 328 330 331 329 326 327 329 332
295 296 296 295 296 295 294 294 294 294 294 294 294 294 295 294 294 293 293 292 292 292 292 292 292 292 292 292 292 292 292 292 292 292 292 292 293 293 294 294 294 295 295 295 295 296 296 297 297 298 302 305 307 309 310 310 310 311 312 313 314 315 316 316 317 317 317 318 318 319 320 321 322 322 322 322 323 325 327 330 330 329 329 329 329
295 295 295 295 296 295 294 294 293 294 294 294 294 294 294 293 293 293 292 292 292 292 292 292 292 291 292 292 292 292 292 292 292 292 292 292 293 294 294 294 295 295 295 295 295 295 296 297 297 297 299 302 305 307 308 308 309 311 312 312 313 313 314 315 316 317 317 318 318 318 318 319 320 321 322 322 323 323 324 326 327 329 330 331 330
294 295 295 295 295 294 294 294 293 293 294 294 293 293 293 293 293 292 292 292 292 292 292 292 292 291 291 291 292 292 292 292 291 291 292 293 294 294 295 295 295 295 295 295 295 295 295 296 297 298 297 298 300 303 305 307 308 310 311 310 311 312 313 314 315 316 316 316 316 316 316 316 316 317 319 321 322 323 323 324 325 327 329 330 331
294 295 295 295 295 294 294 293 293 293 293 293 293 293 293 293 293 293 292 292 292 291 291 291 291 291 291 291 291 292 292 292 291 292 293 294 295 295 296 296 296 296 296 296 296 296 296 295 295 297 298 297 297 298 301 305 307 308 309 308 309 311 312 313 314 314 314 314 314 314 315 316 316 315 316 317 319 320 321 322 323 324 326 328 330
294 294 295 295 295 294 294 293 293 293 293 293 293 293 293 293 293 292 292 292 291 291 290 290 290 291 291 291 291 291 291 291 291 292 294 295 296 296 296 297 297 297 296 296 296 296 296 296 295 295 297 298 298 296 297 302 305 307 307 305 307 310 311 311 311 311 310 310 311 312 313 315 317 317 317 316 317 316 317 319 320 321 322 324 326
294 294 294 295 294 294 293 293 293 293 293 293 293 293 293 293 292 292 291 291 291 290 290 290 290 290 290 290 290 290 291 290 291 293 294 295 295 295 294 295 295 295 295 295 295 295 295 295 294 293 295 298 298 296 296 299 302 303 303 304 305 307 308 307 307 307 307 308 310 311 312 314 316 316 316 317 317 317 316 317 317 317 319 320 322
293 293 293 294 294 293 292 293 293 292 292 293 293 293 293 292 292 291 291 290 290 289 289 289 289 290 290 290 290 291 291 290 291 292 294 294 292 291 292 292 293 293 293 293 294 294 294 294 294 294 294 296 296 296 296 296 296 297 299 302 304 305 305 304 304 304 305 307 309 311 312 313 313 313 314 315 316 317 318 318 318 318 317 317 319
293 293 293 293 293 292 292 292 292 292 292 293 293 293 292 291 291 291 290 290 289 289 289 289 289 289 289 289 290 290 290 290 291 292 292 291 290 291 292 292 293 293 294 293 294 294 294 294 294 293 293 293 294 294 294 294 294 295 296 300 303 303 302 302 302 303 304 306 308 309 310 311 311 311 312 313 314 315 317 318 319 320 320 319 319
292 292 292 292 293 292 292 292 292 292 292 292 292 292 291 291 290 290 289 289 289 288 288 288 289 288 288 289 290 291 290 290 291 292 291 290 290 292 291 291 292 293 293 292 292 292 293 293 293 292 291 292 292 293 293 292 292 294 295 297 300 301 300 300 301 302 303 305 307 308 308 307 307 308 309 310 311 313 314 316 318 318 320 321 321
292 292 292 292 292 292 292 292 292 292 292 291 291 291 291 290 290 289 289 289 288 288 288 288 288 288 288 289 289 290 291 291 291 291 289 290 291 291 289 290 291 291 291 291 290 291 291 292 291 290 290 291 292 292 292 291 290 291 293 294 296 298 299 299 300 301 302 304 306 306 305 304 304 304 306 308 310 311 313 314 316 317 318 320 321
291 291 292 292 292 292 292 292 292 292 291 291 290 290 290 290 289 289 289 289 288 288 288 287 287 286 286 288 290 291 291 290 291 291 289 290 291 289 289 290 290 290 290 289 289 290 290 290 290 289 289 290 291 292 291 290 290 290 291 291 293 294 296 298 299 300 300 302 304 304 303 303 303 304 306 308 309 311 312 312 313 315 316 318 319
291 291 292 293 293 293 293 292 292 291 291 291 290 290 290 289 289 289 289 288 288 288 288 287 286 286 287 290 291 292 293 291 290 290 289 290 290 288 289 289 289 289 289 288 289 289 289 289 289 289 289 289 290 290 290 289 289 289 290 290 291 292 294 297 298 298 299 300 301 301 302 302 304 305 306 307 307 308 309 310 311 312 314 315 316
291 291 292 292 292 293 292 292 291 291 291 290 290 290 289 289 288 289 289 288 288 287 288 287 286 286 288 290 289 290 294 291 287 289 289 289 288 288 288 288 288 288 288 288 288 288 288 288 288 288 288 288 289 289 289 289 289 289 289 289 290 291 292 294 295 296 298 299 299 300 301 302 303 304 304 304 305 305 306 307 308 310 311 313 315
290 291 291 292 292 292 291 291 291 291 290 290 290 289 288 288 288 288 289 289 288 287 287 287 286 286 287 289 290 291 293 289 286 288 289 288 288 288 287 287 287 288 288 288 288 288 288 287 287 288 288 288 288 288 288 288 288 288 289 289 289 290 290 292 294 295 297 298 299 299 300 301 302 302 302 303 303 304 305 306 307 308 310 312 314
290 290 291 291 291 291 290 291 290 290 290 289 289 288 288 288 287 288 288 289 288 287 287 286 285 285 285 287 288 289 288 286 287 289 287 287 287 287 287 287 287 288 287 287 287 287 287 287 287 287 287 288 288 288 288 288 288 288 288 289 289 289 290 290 292 294 295 296 297 298 299 300 300 301 301 302 303 304 305 306 306 307 309 310 312
290 290 290 290 290 290 290 290 289 289 289 289 288 288 287 287 287 287 287 288 288 287 287 286 285 285 286 286 286 286 285 286 287 287 287 286 286 287 287 287 287 287 287 287 287 287 287 287 286 286 287 287 287 288 288 288 288 288 288 288 288 289 289 290 292 293 294 295 296 298 298 299 299 300 301 301 302 303 304 305 306 307 308 309 310
291 290 290 289 289 289 289 289 288 288 288 288 288 287 287 287 287 287 287 288 288 287 286 285 285 285 285 285 285 285 285 285 285 285 286 286 285 286 286 286 286 286 286 286 286 286 286 286 286 286 286 287 287 287 287 288 288 288 288 288 289 289 290 290 291 293 294 295 296 297 297 297 298 298 299 300 301 302 303 304 305 306 307 307 308
291 290 289 289 288 288 288 288 288 288 288 288 287 287 286 287 287 286 287 287 288 287 286 285 285 285 285 285 284 284 284 285 284 284 285 285 285 285 285 285 285 285 285 285 285 286 286 286 286 286 286 286 287 287 287 287 287 288 288 288 289 289 290 290 290 291 292 292 293 293 294 295 296 297 298 299 300 301 302 303 304 305 305 306 306
291 290 289 288 288 288 288 288 288 288 288 287 287 286 286 286 286 286 286 287 287 287 286 285 284 284 284 284 284 284 284 284 284 284 284 284 284 284 284 284 284 285 285 285 285 285 285 286 286 286 286 286 286 286 286 287 287 287 288 288 288 289 289 289 290 290 291 290 291 291 293 294 295 297 298 298 299 300 301 302 303 303 303 304 305
291 290 289 288 288 287 287 287 287 287 287 287 287 287 286 286 286 286 286 286 287 286 285 285 284 284 284 284 284 284 284 284 284 284 283 283 283 283 283 283 283 284 285 284 284 284 285 286 286 286 286 286 286 286 286 286 287 287 287 287 287 287 288 288 289 290 290 291 291 291 292 293 294 295 296 297 299 300 301 301 302 303 303 304 305
290 290 289 288 288 287 287 287 286 287 287 287 287 286 286 286 286 286 286 286 286 286 285 284 284 283 283 283 283 283 284 284 283 283 283 282 282 282 282 283 283 283 283 284 284 284 285 285 286 286 286 286 285 285 286 286 286 286 286 286 286 286 287 287 288 289 289 289 290 290 291 291 292 292 293 294 296 298 299 300 301 302 303 304 305
290 290 289 288 288 288 287 287 287 287 287 287 286 286 286 286 286 286 286 286 286 286 285 284 284 283 283 283 283 283 283 283 283 283 283 282 282 282 282 282 282 282 283 283 283 284 285 285 285 286 286 285 285 285 285 285 285 285 285 285 285 285 286 286 286 287 287 287 288 289 289 290 290 290 291 292 293 295 297 298 299 300 301 303 304
290 290 290 289 288 288 287 287 287 287 287 287 286 286 286 286 286 286 286 285 285 285 284 284 283 283 283 283 282 282 282 282 282 282 282 282 282 282 282 282 282 282 282 283 283 284 284 285 285 285 285 285 285 285 285 284 284 284 284 284 284 284 284 284 285 285 286 287 287 288 289 289 289 290 291 291 292 293 295 296 297 298 299 301 301
291 290 290 289 288 288 287 287 287 287 287 287 286 286 286 286 286 285 285 285 285 285 284 283 283 283 283 283 282 282 282 282 282 282 282 282 282 282 282 281 282 282 282 282 283 283 284 284 284 285 285 285 285 284 284 283 283 283 283 283 283 283 283 283 284 285 286 287 287 288 288 288 289 290 290 291 291 292 293 294 295 296 297 298 299
290 290 289 289 289 288 287 287 287 287 287 287 286 286 286 286 285 285 284 284 284 284 284 283 283 283 282 282 282 282 282 281 281 281 281 281 281 281 281 281 281 281 281 282 282 283 284 284 284 284 284 284 284 284 283 283 282 282 282 282 282 282 282 282 283 284 285 285 285 286 286 287 287 288 288 289 290 290 291 292 293 294 295 296 296
290 290 289 289 288 288 287 287 287 286 287 287 286 286 286 285 285 285 284 284 284 284 284 283 283 282 282 282 282 282 281 281 281 281 281 281 281 281 281 281 281 281 281 281 282 283 283 283 283 284 284 284 283 283 283 282 282 281 281 281 281 281 281 281 282 282 283 283 283 284 284 285 286 286 287 287 288 289 289 290 291 292 292 293 294
289 289 289 288 288 288 287 287 286 286 287 287 286 286 286 285 284 284 284 284 284 283 283 283 282 282 282 281 281 281 281 281 281 280 280 280 280 280 280 280 280 281 281 281 281 282 283 283 283 283 283 283 282 282 282 281 281 280 280 280 280 280 280 280 280 280 281 282 282 282 283 284 285 286 286 287 287 288 288 289 289 290 291 291 292
289 289 289 288 288 287 287 287 286 286 286 286 286 286 285 284 284 283 283 283 283 283 283 283 282 282 281 281 281 281 281 280 280 280 280 280 280 280 280 280 280 280 281 280 281 281 282 282 282 282 282 281 281 281 280 280 279 279 279 279 278 278 278 278 278 278 279 280 280 281 282 283 283 284 285 285 286 286 287 287 288 288 289 290 290
289 289 289 288 288 287 287 286 286 286 286 286 286 285 284 284 283 283 283 283 283 283 282 282 282 281 281 281 280 280 280 280 279 279 279 279 279 279 279 279 279 279 279 279 279 280 280 280 280 280 280 280 279 279 278 278 278 277 277 277 276 276 276 276 276 277 277 278 279 280 281 282 283 283 284 284 284 285 285 286 287 287 288 289 289
289 289 289 288 288 287 287 286 286 286 286 286 285 284 284 283 283 283 283 282 282 282 282 282 281 281 280 280 280 279 279 279 279 278 278 278 278 277 277 277 277 277 277 277 278 278 279 279 279 278 278 278 277 277 276 276 276 276 276 276 275 275 275 275 275 276 276 277 278 279 280 281 282 282 283 283 283 284 285 285 286 287 288 289 290
289 289 289 288 288 287 287 286 286 286 286 286 285 284 283 283 282 282 282 282 282 282 282 281 281 280 280 280 279 279 279 278 278 277 277 276 276 276 275 275 275 275 275 276 276 276 277 277 277 277 276 276 275 275 275 275 275 275 275 275 275 275 275 275 275 275 276 277 278 279 280 281 281 282 282 282 283 284 284 285 286 287 288 289 290
288 288 288 288 288 287 287 286 286 286 285 285 284 283 283 283 282 282 282 282 282 282 282 281 281 280 280 280 279 279 278 277 277 276 276 275 274 274 274 273 273 273 274 274 274 274 275 275 275 275 275 275 274 274 274 275 275 275 275 275 275 275 275 275 275 275 276 277 278 279 279 280 280 281 281 282 282 283 284 285 286 287 288 289 290
288 288 288 288 287 287 286 286 286 285 285 284 283 283 283 282 282 282 282 282 282 282 282 282 281 281 280 279 279 278 277 277 276 275 274 274 273 273 272 272 272 272 273 273 273 273 273 273 273 273 274 274 274 274 274 274 275 275 275 275 275 275 275 275 275 275 276 277 277 278 279 279 280 280 281 281 282 283 284 285 286 287 288 289 290
288 287 287 287 287 286 286 286 285 285 284 284 283 283 282 282 282 282 282 282 282 282 282 282 281 281 280 279 278 277 277 276 275 274 273 273 272 272 271 271 271 271 272 272 272 272 272 272 273 273 273 273 274 274 274 274 275 275 275 275 275 275 275 276 276 276 276 277 277 278 278 278 279 279 280 281 281 282 283 284 285 286 287 288 289
287 287 287 287 286 286 286 285 285 285 284 283 283 283 282 282 282 282 282 282 282 282 282 281 281 280 280 279 278 277 276 275 274 273 273 272 271 271 271 271 271 271 271 271 272 272 272 272 273 273 273 273 274 274 274 275 275 275 275 275 276 276 276 276 276 276 277 277 277 277 278 278 278 279 279 280 281 282 283 284 285 286 287 288 289
287 287 286 286 286 286 286 285 285 284 283 282 282 282 282 282 282 281 282 282 282 282 281 281 280 279 279 278 277 276 275 274 274 273 272 272 271 271 271 271 271 271 271 272 272 272 272 272 273 273 273 274 274 274 275 275 275 275 275 276 276 276 277 277 277 277 277 277 277 277 278 278 279 279 279 280 281 282 283 284 285 286 287 287 287
286 286 286 286 286 286 285 285 285 284 282 282 282 282 282 282 281 281 282 282 282 281 281 280 279 278 278 277 276 275 274 274 273 273 272 272 271 271 271 272 272 272 272 272 272 272 272 273 273 273 274 274 274 274 275 275 275 276 276 276 276 277 277 277 277 277 277 277 277 277 278 278 279 279 279 280 281 282 283 284 285 285 285 285 285
286 286 286 286 286 285 284 284 283 282 282 282 282 282 282 281 281 282 282 282 282 281 280 279 278 277 276 275 275 275 274 274 273 273 272 272 272 272 273 273 273 273 272 272 272 273 273 273 273 274 274 274 274 275 275 275 276 276 276 277 277 277 277 277 278 278 278 277 278 278 278 279 279 280 280 281 281 282 283 283 283 283 282 283 284
285 285 285 285 285 285 284 283 282 282 282 282 282 282 282 282 282 282 282 281 281 280 279 278 277 276 275 275 275 274 274 273 273 274 274 274 274 274 274 274 274 274 273 273 273 273 273 273 273 274 274 274 275 275 275 275 276 276 277 277 277 278 278 278 278 278 278 278 278 279 279 279 280 280 280 281 281 281 280 280 281 281 282 283 284
284 284 284 284 284 283 283 282 281 281 281 282 281 281 281 281 282 282 282 281 280 279 278 277 276 275 275 275 274 274 274 274 274 274 275 275 276 276 276 276 275 275 274 274 274 274 274 273 274 274 274 275 275 275 276 276 276 277 277 277 277 278 278 278 278 277 277 278 278 278 278 278 279 279 280 280 280 280 279 280 280 281 282 283 284
283 283 283 283 282 282 281 281 281 281 281 281 281 280 281 281 281 281 281 280 279 278 277 276 276 275 274 274 274 274 274 274 274 274 274 275 275 275 275 276 276 276 276 276 276 276 276 276 276 276 276 276 276 277 277 277 277 277 277 277 277 277 277 277 277 277 277 277 277 278 278 277 278 279 279 279 279 279 279 280 280 282 283 283 284
282 282 282 282 281 281 281 281 281 281 281 280 280 280 281 280 280 280 280 279 278 277 276 276 275 274 274 274 274 274 274 274 274 274 274 274 274 274 275 275 275 275 276 276 277 277 277 277 277 277 277 277 277 277 277 277 277 277 277 277 277 277 277 277 277 277 277 277 277 277 278 278 278 278 278 279 279 279 279 280 281 282 283 283 284
281 281 281 281 281 280 280 280 280 280 280 280 280 281 280 280 279 279 278 278 277 276 276 275 275 275 275 275 275 275 274 274 274 274 274 273 273 274 274 274 275 275 275 276 276 276 276 276 276 276 276 276 276 276 277 277 277 277 277 277 277 277 277 277 277 277 277 277 277 277 278 278 278 278 279 279 280 280 280 280 281 282 283 283 284
281 281 280 280 280 280 280 280 279 279 279 279 280 281 281 280 278 277 277 277 276 276 276 275 275 275 275 275 275 274 274 274 273 274 274 274 274 274 275 275 275 275 275 275 276 276 276 276 276 276 276 276 276 277 277 277 277 277 277 277 277 277 277 277 277 277 277 277 277 277 278 278 278 279 279 280 280 281 281 281 282 282 283 284 284
280 280 280 279 279 279 279 279 278 279 279 279 280 281 281 281 279 278 277 277 276 276 275 275 275 275 275 275 274 274 274 274 274 274 275 275 275 276 276 276 276 276 276 276 276 276 276 277 277 276 276 276 276 277 277 277 278 278 277 277 277 277 278 278 278 278 278 278 278 278 278 279 279 280 280 281 281 281 281 281 281 282 283 283 284
279 279 278 278 278 278 278 278 278 278 278 279 280 281 280 281 280 279 278 277 276 276 276 275 275 275 275 274 274 274 274 274 274 275 276 276 276 276 276 276 276 276 276 276 276 276 276 276 276 276 276 276 276 277 277 277 277 277 276 276 276 276 277 277 277 278 278 278 279 279 279 279 280 280 281 281 281 281 281 281 281 282 283 284 284
278 278 278 277 277 277 277 277 277 278 278 279 280 280 280 280 280 279 278 277 276 276 276 275 275 275 274 274 274 274 275 275 275 276 276 276 276 276 276 276 276 276 276 276 275 275 274 274 274 275 275 275 275 275 274 274 274 274 274 274 274 274 275 275 276 277 278 278 278 278 279 279 279 279 280 280 280 281 281 281 282 282 283 284 284
278 277 277 277 276 276 277 277 276 277 278 278 279 280 280 280 279 278 277 277 276 276 275 275 275 274 274 274 275 275 275 275 276 276 276 276 276 276 276 276 276 276 275 275 274 274 274 274 274 274 274 273 272 271 271 271 271 272 272 272 273 273 274 275 275 276 276 277 277 277 278 278 279 279 280 280 281 281 281 282 282 283 284 284 284
Wind_Speed
20 19 18 17 16 13 11 9 7 6 5 5 5 6 7 8 9 9 9 7 7 6 6 6 8 8 10 11 12 12 14 14 15 15 14 14 12 12 11 10 11 11 12 11 10 11 12 12 12 12 13 13 14 14 14 15 15 16 17 17 17 17 17 18 19 19 18 17 17 18 18 19 19 20 21 21 21 21 21 22 23 24 26 26 25
20 20 19 18 16 14 12 10 8 6 6 4 4 5 6 7 8 8 8 7 6 6 6 7 8 9 10 11 12 13 14 15 16 16 15 14 13 12 11 10 10 11 11 11 10 11 11 11 11 12 13 14 15 16 16 16 16 17 17 17 17 17 17 18 18 19 19 18 17 17 17 18 19 20 21 22 22 22 22 22 22 23 25 27 26
21 20 19 18 16 14 12 11 9 7 6 4 4 4 4 5 6 7 7 6 6 6 6 7 8 9 10 11 12 13 15 16 16 16 16 15 14 13 11 10 10 10 10 9 10 11 12 12 11 11 13 14 16 16 17 18 18 18 18 19 18 18 18 18 18 18 18 18 17 17 17 17 18 19 21 22 22 22 23 23 24 24 25 26 27
21 20 20 18 16 15 13 11 10 8 6 4 3 3 4 5 5 6 6 6 5 6 7 8 9 10 11 12 13 14 15 15 16 16 16 15 13 12 11 9 8 8 9 10 11 12 13 13 12 12 12 13 15 16 18 18 19 20 20 20 20 19 18 18 18 18 18 17 17 16 17 17 18 18 18 20 21 22 23 24 25 26 26 26 27
22 21 20 18 17 15 14 12 10 8 6 5 3 3 3 4 4 5 5 5 4 5 7 8 9 11 12 12 13 14 15 15 16 15 15 14 12 11 9 8 8 9 9 10 11 12 13 13 12 11 12 13 14 16 17 19 20 20 21 21 21 20 20 19 18 18 17 17 17 16 17 18 18 18 17 17 18 20 22 24 25 25 25 27 28
22 21 20 19 18 16 14 13 11 9 7 5 4 3 2 3 4 4 4 4 4 5 7 8 10 12 12 13 14 14 14 15 15 14 14 12 10 9 8 7 8 8 9 10 11 11 12 13 13 13 13 14 16 17 18 19 20 20 21 22 22 21 20 20 19 18 17 17 17 17 17 17 18 19 19 18 17 18 19 22 24 24 24 26 28
23 22 22 20 19 17 16 14 11 10 7 6 4 3 1 1 3 4 4 4 5 7 8 10 11 13 13 14 14 15 14 14 14 13 11 9 8 9 8 7 7 8 9 10 11 12 13 14 15 15 14 15 17 19 20 20 21 20 21 23 23 22 21 20 19 19 19 18 18 18 18 18 18 19 20 20 21 20 20 21 22 24 24 25 26
24 23 22 21 19 18 16 14 12 10 8 7 5 3 1 1 2 3 4 3 4 7 8 10 12 14 15 15 16 15 13 13 12 9 7 7 8 8 7 6 6 7 8 10 11 12 13 15 16 16 15 14 16 18 19 20 20 19 21 24 23 22 21 20 21 21 21 21 20 20 19 19 19 18 18 19 20 22 23 23 23 24 25 26 26
25 24 23 22 20 18 17 15 13 11 9 7 5 3 1 1 2 2 3 3 5 6 8 11 13 16 16 16 18 16 13 12 9 6 5 5 6 7 7 7 6 7 9 10 11 12 13 14 16 16 16 14 15 17 19 19 20 19 21 23 22 21 21 22 23 24 23 22 21 20 19 19 19 18 18 18 18 19 21 23 25 26 26 27 27
26 25 24 22 20 19 17 15 14 12 10 8 6 4 1 1 1 2 2 3 5 7 10 12 15 18 18 19 19 16 13 10 6 3 3 5 10 14 12 8 8 8 8 9 10 11 12 13 15 16 17 16 16 17 19 20 21 20 21 21 21 21 23 24 25 25 24 23 21 20 19 19 20 20 19 19 19 18 18 20 22 24 26 28 29
27 26 25 23 21 20 18 16 14 12 11 9 6 4 2 2 0 1 2 3 5 8 11 13 17 18 18 21 19 14 10 6 4 2 4 11 17 13 10 9 7 7 8 10 11 11 12 13 14 17 19 18 19 19 20 20 20 19 20 20 21 23 24 26 26 25 25 23 21 19 19 20 21 21 21 21 21 20 19 20 21 22 23 25 27
29 27 26 24 22 21 19 17 15 13 11 9 7 5 4 3 1 1 1 2 3 6 10 14 18 18 21 21 17 12 7 3 1 5 10 19 12 7 12 12 9 8 9 11 13 13 13 13 15 17 19 19 19 19 19 20 20 20 20 21 23 24 25 27 26 26 26 24 22 20 20 21 22 22 23 22 22 21 21 22 22 22 23 23 24
29 28 27 25 23 21 20 18 16 14 11 10 8 7 6 4 3 2 1 0 2 4 8 13 14 16 21 19 17 11 3 1 7 4 20 16 2 9 16 11 9 9 10 13 14 14 12 12 15 17 18 17 17 17 18 21 22 21 21 23 24 26 27 27 26 26 27 25 23 22 22 23 24 24 23 23 22 22 22 23 23 23 24 25 24
30 29 28 26 25 23 21 19 17 15 13 11 10 8 7 5 4 3 2 1 2 3 7 10 9 12 13 12 15 11 5 2 10 6 22 5 3 15 14 9 10 9 11 14 15 14 13 13 16 18 17 16 16 17 19 23 24 21 20 22 24 26 27 26 26 27 28 26 25 25 26 26 25 24 23 23 22 22 22 23 23 24 25 26 27
31 30 29 27 26 25 23 20 18 16 14 13 11 10 8 7 6 4 2 0 3 3 6 8 9 11 7 4 6 6 6 1 5 20 16 3 8 17 9 10 11 11 14 16 16 15 15 17 19 20 18 17 17 18 21 23 23 21 20 21 22 24 26 26 27 29 29 27 27 27 27 26 25 24 23 24 24 25 24 24 24 24 25 26 28
33 31 30 29 27 25 23 21 19 17 15 13 12 11 9 8 6 5 3 0 2 2 3 6 8 8 4 2 1 1 2 2 13 24 6 2 16 13 11 18 16 16 18 16 18 18 19 21 21 22 21 20 21 21 23 23 23 21 20 20 21 23 25 27 29 29 28 27 27 28 27 26 25 24 25 27 28 28 27 27 26 25 25 26 27
34 33 32 30 28 26 24 22 20 18 16 14 12 11 10 9 7 5 3 0 1 2 1 2 5 5 2 1 1 1 1 3 12 12 7 14 18 12 21 26 19 19 19 20 23 21 22 24 23 23 23 23 23 23 24 24 23 23 21 20 21 23 25 27 27 26 26 27 27 28 28 26 26 26 28 29 30 30 29 29 28 27 26 25 27
35 34 32 30 29 27 25 23 21 19 17 15 13 12 11 10 8 6 4 1 1 1 1 0 2 2 1 1 2 3 4 7 7 4 11 17 12 18 32 27 21 23 23 26 27 25 25 24 23 24 24 24 24 24 24 24 24 23 22 21 21 23 25 26 25 25 25 26 28 28 28 27 28 29 30 30 31 31 30 31 30 30 29 27 27
36 35 33 31 29 27 25 23 22 20 18 16 15 14 12 10 9 8 5 2 1 1 0 2 1 1 2 2 3 5 6 7 4 3 10 9 12 28 30 21 26 31 29 30 29 27 26 23 25 26 24 25 24 25 25 24 24 24 23 22 22 23 24 25 25 25 25 26 27 28 27 28 29 30 31 31 31 32 32 32 32 32 31 30 29
36 35 34 31 29 28 26 24 22 20 18 17 16 14 13 13 11 10 7 3 1 2 1 3 2 2 2 3 4 6 7 8 7 5 4 5 16 26 24 26 33 31 28 32 31 28 26 27 28 25 24 24 24 24 25 24 24 23 23 22 22 23 23 23 23 23 24 24 25 26 27 28 30 31 32 32 32 32 33 33 33 33 32 32 31
37 36 34 32 30 28 27 25 23 22 20 18 16 16 15 14 12 11 9 5 2 2 2 3 3 3 3 4 5 6 8 10 8 5 3 5 8 12 21 35 37 32 33 32 28 28 29 29 26 23 23 23 22 24 24 24 23 23 23 23 23 23 24 24 24 24 25 27 28 29 29 30 31 32 32 33 33 33 34 34 34 34 34 33 34
38 36 34 32 30 29 27 26 24 22 21 19 18 18 17 15 13 12 10 6 3 2 3 4 4 4 4 4 5 6 6 5 3 4 3 5 5 6 15 21 23 34 44 37 29 30 29 25 23 23 21 19 21 23 23 22 22 23 23 23 24 25 26 27 27 28 28 30 32 31 31 31 30 30 30 31 31 32 33 34 35 36 36 35 34
39 38 35 33 31 30 28 26 24 23 21 20 20 19 17 16 15 13 11 7 4 3 4 5 5 5 6 6 6 5 4 4 6 7 5 5 6 6 11 15 15 25 36 38 36 33 27 24 22 20 16 16 20 21 20 20 20 21 22 24 26 27 28 28 27 27 27 28 29 30 30 30 30 30 30 30 29 29 30 32 34 36 36 36 34
38 39 38 36 33 31 29 27 25 24 22 21 20 18 17 16 15 13 11 7 5 4 5 6 6 6 7 7 8 7 8 9 10 11 9 10 9 6 10 16 13 18 27 32 32 31 26 22 20 15 13 15 19 18 16 17 18 21 25 27 27 27 28 27 26 27 28 29 30 31 32 32 33 34 34 33 32 31 32 32 33 34 34 35 35
40 42 42 39 37 35 33 30 28 26 24 22 20 19 18 17 15 14 11 8 6 5 5 6 7 7 8 8 8 9 9 10 11 13 14 15 13 9 12 15 12 17 25 24 21 21 19 18 19 16 15 17 16 14 15 18 22 25 28 29 29 30 30 30 31 32 32 34 34 34 35 35 36 37 38 37 36 35 34 35 34 34 34 34 35
45 45 45 42 40 38 35 32 30 27 25 23 21 20 19 17 16 13 11 9 7 5 6 6 7 8 9 9 9 9 9 9 12 14 16 17 16 13 13 15 14 16 19 17 15 13 12 15 18 16 17 18 16 16 19 22 26 30 32 34 35 34 35 35 34 34 34 34 35 35 35 36 36 36 37 37 37 36 36 37 36 36 36 36 36
47 46 46 44 42 40 37 35 32 29 26 24 23 22 20 18 16 14 12 10 8 6 6 7 8 9 9 10 10 9 9 10 11 13 15 16 18 18 15 12 11 10 10 11 11 11 12 14 14 12 15 17 16 19 23 26 31 35 36 36 37 36 36 35 33 33 33 33 34 34 34 35 35 34 34 34 35 36 36 37 38 38 37 37 37
45 46 46 45 45 42 40 37 34 31 28 26 25 23 22 20 18 16 14 11 9 8 8 9 9 10 10 10 10 10 10 10 12 14 15 16 17 19 17 12 9 7 7 7 6 7 10 12 10 9 12 13 15 19 24 29 33 34 35 36 38 39 37 34 32 32 34 35 37 38 38 38 38 37 37 37 37 38 38 38 39 39 38 37 37
44 45 45 45 45 44 42 40 36 33 30 28 27 25 23 21 19 17 15 13 12 10 10 10 10 11 11 11 11 11 11 12 13 14 15 16 16 17 17 15 12 8 6 7 4 3 9 15 12 7 10 13 17 22 27 30 31 32 35 37 36 37 35 33 34 35 37 39 39 39 40 40 40 40 39 39 40 40 40 40 40 39 39 39 39
42 43 43 44 44 44 43 41 38 35 33 31 28 26 25 23 20 18 16 15 14 12 12 12 12 13 12 12 12 12 12 13 14 14 14 14 15 15 16 15 14 11 8 9 8 4 8 14 9 7 15 20 23 27 29 30 32 33 34 34 33 33 34 35 36 36 36 37 37 37 38 38 38 38 38 39 39 40 40 41 41 41 41 42 42
41 41 42 42 43 43 42 41 39 37 34 32 30 28 26 24 22 21 19 18 16 14 14 14 14 14 13 13 13 12 13 13 13 13 13 13 13 14 14 13 13 13 12 12 10 7 9 14 14 16 22 26 27 29 32 33 33 32 30 31 33 35 37 38 36 36 36 35 36 37 37 37 38 38 38 39 40 41 42 42 43 44 44 44 44
42 42 42 42 43 43 42 40 39 38 36 34 32 30 28 26 24 23 21 20 17 16 15 15 15 15 15 14 13 13 13 13 13 14 14 15 15 15 16 16 15 14 14 13 11 15 23 24 23 23 23 26 30 30 33 34 31 31 33 35 37 38 39 39 37 34 35 35 35 35 35 36 37 38 39 41 42 44 45 45 45 45 45 44 44
42 42 43 43 43 43 42 41 40 39 38 36 34 32 30 28 26 24 22 21 18 17 16 16 16 16 15 15 14 13 13 13 14 16 17 17 18 18 19 18 18 16 16 15 12 18 29 30 27 27 25 27 32 31 31 34 34 35 37 38 39 39 38 38 39 37 35 35 35 35 36 36 37 39 40 42 44 45 45 45 45 44 43 43 43
42 43 43 43 43 43 43 43 41 40 39 37 35 33 31 30 27 25 23 21 20 18 18 18 17 17 16 15 15 15 15 16 16 17 18 18 18 19 19 19 19 18 15 17 15 15 25 32 32 32 30 28 32 33 32 34 37 38 38 39 40 41 40 39 41 41 37 34 35 36 36 37 38 40 41 43 44 44 44 44 44 43 43 42 42
41 42 43 43 43 43 44 44 42 41 40 38 36 34 32 30 28 26 24 22 20 19 19 19 18 17 17 16 17 17 17 17 17 17 17 17 16 16 17 16 17 17 15 16 17 15 20 30 32 33 32 29 30 34 35 35 37 38 39 41 41 41 42 41 41 42 39 35 37 38 38 38 40 40 41 42 42 42 43 42 42 43 43 42 42
41 42 42 43 43 44 44 44 43 42 40 38 36 34 32 29 27 26 24 22 21 19 19 19 19 19 18 18 18 18 18 17 17 16 15 14 14 13 13 12 12 14 13 13 16 17 19 27 32 32 32 31 31 33 35 36 37 38 39 41 43 43 43 42 43 42 39 36 37 38 39 39 39 40 40 40 41 41 41 41 42 41 42 41 40
41 41 41 42 43 44 45 45 44 43 41 39 37 34 31 29 26 25 23 22 21 20 20 19 19 19 19 19 19 18 18 17 16 16 14 13 12 10 9 9 8 9 10 11 14 18 19 24 30 31 31 32 33 33 33 35 37 39 40 42 42 42 43 43 41 38 37 37 37 38 39 38 39 40 40 40 41 41 40 41 42 41 41 42 41
41 42 42 43 44 44 45 45 44 43 41 39 37 35 32 28 26 24 23 22 21 20 20 19 19 19 19 19 19 18 17 17 16 15 14 12 12 12 11 10 9 9 10 12 14 18 20 24 28 30 30 30 32 35 34 33 35 37 42 44 41 37 38 41 41 38 37 38 38 39 40 41 42 41 41 41 40 40 40 41 42 43 42 41 40
42 42 43 44 44 45 45 44 44 43 41 39 37 34 31 29 27 26 24 23 22 20 20 19 19 19 19 19 18 18 17 17 16 15 14 13 13 13 12 10 11 12 12 13 15 18 20 23 26 27 29 30 32 36 36 34 35 33 36 41 41 38 37 38 40 40 39 39 40 39 40 43 43 41 41 41 41 40 41 40 40 40 40 40 41
43 44 44 44 44 44 44 44 44 42 41 39 37 34 32 29 28 27 25 24 23 21 20 20 19 19 19 18 18 17 16 16 15 14 14 13 13 13 12 11 12 14 14 14 16 18 20 23 25 25 27 29 30 32 33 32 31 29 30 36 41 43 42 40 39 36 35 40 43 41 40 40 40 40 40 40 40 38 37 36 36 39 42 43 44
43 43 44 45 44 44 43 43 42 41 40 39 37 35 33 31 29 27 25 24 23 22 22 20 19 19 18 17 16 15 14 13 13 14 13 13 13 14 14 14 15 17 18 17 18 19 19 20 21 22 25 26 27 28 29 27 28 33 36 36 37 39 40 41 42 35 30 35 40 40 37 34 34 36 36 35 35 34 34 37 41 45 48 47 45
42 43 43 43 44 44 43 42 41 40 40 39 37 35 32 30 29 28 27 26 24 23 22 20 19 18 17 16 13 11 12 13 14 15 15 14 15 16 16 16 17 19 20 21 22 23 24 23 23 22 22 25 27 27 28 29 33 37 34 30 31 35 36 36 38 38 32 29 33 34 35 35 33 35 38 38 41 42 42 45 47 47 47 45 44
41 42 43 43 43 43 43 42 41 41 40 39 36 33 31 30 30 29 28 27 26 24 22 20 20 18 15 14 12 11 13 15 15 15 15 15 15 16 16 17 18 18 20 22 24 25 28 30 28 23 20 23 27 26 27 30 31 31 31 31 33 35 33 26 25 33 32 27 30 35 41 44 39 39 45 45 44 45 44 45 47 45 45 45 45
41 41 42 42 42 41 41 40 41 41 40 38 35 34 32 31 30 29 29 28 26 24 22 21 19 17 14 13 13 13 14 14 14 14 13 14 14 14 16 17 19 20 21 24 25 25 26 27 26 23 23 27 30 30 31 32 34 36 39 40 38 35 35 30 26 34 39 35 33 36 42 49 42 38 46 48 43 42 42 43 46 45 43 44 44
40 40 40 40 40 40 40 41 41 41 40 38 35 32 31 30 30 29 28 27 25 23 21 19 16 15 14 14 15 14 14 13 13 13 13 13 14 14 17 18 20 22 22 25 27 28 28 28 28 29 29 31 35 37 37 35 38 41 41 41 41 37 36 37 36 42 47 42 36 32 36 47 44 37 44 50 43 40 41 42 43 42 42 44 45
39 39 40 40 40 40 41 41 40 40 39 37 33 29 28 28 28 28 26 24 22 20 17 15 14 14 15 16 16 14 13 12 13 13 13 15 16 17 19 21 24 25 25 25 25 27 31 33 34 37 37 37 39 42 42 39 40 42 40 41 42 37 37 42 45 50 53 47 39 29 27 41 46 36 39 46 42 39 41 40 41 41 42 44 44
40 40 40 41 40 40 40 40 39 38 39 36 30 27 27 26 25 25 23 21 19 16 15 14 14 16 16 16 15 14 13 12 12 12 13 15 17 19 22 23 25 24 24 26 28 31 35 37 38 41 40 37 37 39 41 42 42 43 43 44 44 42 42 45 45 48 50 45 37 27 22 37 46 36 35 42 41 41 43 41 40 41 42 44 45
37 38 38 39 40 39 39 39 38 37 37 34 29 26 27 26 24 23 22 21 19 18 17 17 17 18 17 16 15 13 12 11 11 12 13 14 17 19 20 20 21 23 27 29 29 30 32 33 34 37 37 36 37 39 40 41 42 42 42 42 42 39 36 33 31 36 41 36 31 27 26 35 42 35 32 37 38 39 44 44 42 43 45 45 44
35 36 36 36 37 38 38 38 37 36 36 33 27 26 27 26 26 25 23 23 22 21 20 20 20 19 17 15 12 11 11 12 12 12 12 14 16 18 19 21 24 27 29 28 26 25 27 30 33 36 38 38 38 38 39 39 40 41 40 39 38 34 28 21 17 25 36 34 28 25 24 31 37 34 33 38 41 43 46 47 47 46 45 44 44
35 35 35 34 35 37 37 38 36 36 35 31 27 27 27 26 28 28 26 25 24 23 22 21 19 18 15 13 12 12 13 13 12 12 12 13 16 18 20 23 25 25 24 24 24 27 30 32 32 32 32 33 35 37 40 40 40 40 38 38 40 36 29 23 19 24 34 37 32 26 25 33 41 40 35 35 39 43 45 45 45 44 42 42 44
34 34 34 34 34 35 36 36 35 34 35 31 27 27 27 26 28 30 28 26 25 24 22 20 18 16 14 12 12 13 13 12 11 12 12 12 15 18 21 21 21 22 23 25 27 30 30 28 27 29 32 36 38 40 41 39 37 36 35 36 39 36 30 29 27 22 20 26 28 23 23 30 36 38 31 21 18 27 36 38 36 36 37 38 38
Wind_Direction
179 179 176 174 174 168 159 154 145 130 110 88 66 54 44 36 34 33 33 35 39 38 36 38 34 25 18 15 13 10 5 358 354 351 347 343 337 334 332 328 325 323 323 323 329 334 335 335 336 336 336 336 335 333 333 332 331 329 329 328 327 325 322 319 313 306 299 295 294 292 286 280 275 277 279 280 281 278 274 272 273 273 271 266 264
183 182 179 179 175 169 163 158 151 140 125 103 79 59 43 35 30 30 32 34 35 37 38 35 33 23 14 13 10 6 0 354 351 349 346 343 338 336 338 337 332 329 328 330 338 346 346 344 343 342 341 339 338 338 338 337 336 335 334 332 330 328 326 323 320 315 309 300 294 293 293 287 280 278 278 279 280 280 278 273 271 272 272 269 265
187 185 183 182 178 172 166 162 157 146 135 118 93 62 43 33 26 29 30 30 30 32 31 27 24 18 11 8 5 2 356 352 350 346 343 341 338 337 339 342 342 341 345 352 2 7 3 1 360 356 350 345 343 341 341 341 340 339 338 337 334 332 329 326 321 318 316 313 305 297 294 294 291 285 282 281 280 280 279 276 271 266 266 268 267
190 189 186 184 182 175 169 166 162 153 143 128 102 69 46 30 27 29 27 31 29 25 21 16 15 11 7 2 359 356 352 351 349 345 342 341 340 340 343 352 4 8 8 13 18 16 10 8 9 7 0 351 345 343 342 343 343 342 341 339 337 334 333 330 326 321 319 320 317 310 302 299 298 294 287 283 281 281 282 281 277 270 263 262 264
193 191 188 187 185 179 174 170 166 161 151 136 113 87 52 38 36 30 31 33 22 18 14 8 7 4 0 357 355 353 351 351 348 345 344 344 345 348 355 7 20 22 17 20 21 15 10 10 9 6 2 355 348 344 343 343 343 342 340 338 337 336 336 334 331 327 323 322 322 321 315 305 297 295 293 288 284 282 283 284 284 282 274 266 263
195 192 190 190 188 182 178 175 172 166 157 147 130 105 71 51 36 27 26 21 9 3 359 358 359 357 354 351 352 351 349 350 349 348 348 351 357 2 12 21 22 16 14 18 17 11 7 8 7 1 359 359 356 351 346 344 341 340 338 338 337 337 337 336 333 330 327 326 325 325 324 317 305 297 293 288 286 285 284 285 285 285 283 276 269
197 195 194 193 191 185 181 179 176 168 161 154 144 129 105 46 22 20 12 8 4 353 350 351 349 349 348 345 347 348 349 351 350 352 358 8 18 19 21 18 11 5 5 8 3 358 358 359 0 355 351 353 357 358 353 345 341 338 337 337 336 336 336 334 331 330 329 329 328 327 326 325 320 309 299 290 286 285 284 285 286 286 285 283 277
198 198 197 195 192 188 184 182 177 170 166 162 158 155 138 15 13 18 7 7 358 350 347 343 342 343 341 340 342 342 345 348 351 3 18 28 32 29 20 8 3 1 354 347 341 341 344 344 344 343 341 340 346 352 351 345 340 337 336 335 334 333 333 331 329 328 328 328 328 327 326 326 326 320 313 305 296 290 285 284 285 286 287 286 284
199 199 199 197 194 189 186 183 179 175 171 171 169 163 138 20 24 10 4 5 352 347 344 340 340 338 335 337 338 336 338 343 352 12 30 50 40 8 347 335 327 329 327 324 324 328 333 337 336 336 335 332 333 340 341 339 336 332 330 330 330 329 330 329 327 326 325 326 326 326 326 327 328 326 321 320 316 308 299 293 289 287 286 287 288
201 200 199 198 195 190 188 185 182 180 177 176 172 163 136 85 34 358 351 354 352 348 342 339 339 336 334 336 334 332 333 336 345 13 60 44 357 337 333 328 323 330 338 340 338 335 338 341 339 336 334 332 330 332 332 332 330 327 326 326 325 324 325 325 324 323 323 322 322 324 324 324 326 326 323 323 324 321 317 310 303 296 290 287 287
202 200 198 197 194 190 190 188 185 183 182 180 174 166 152 138 77 0 338 346 352 346 340 338 338 335 332 334 334 333 332 333 338 64 62 352 336 339 0 4 358 2 2 358 351 344 343 342 340 336 333 333 332 330 330 328 327 324 323 322 320 318 319 321 321 321 321 320 319 320 322 323 323 323 322 321 319 317 319 318 314 310 304 297 291
201 201 199 198 196 193 192 190 189 188 187 183 172 166 162 163 172 184 301 343 350 340 340 338 335 334 333 335 341 342 336 328 157 115 7 339 334 15 16 2 353 353 354 354 350 343 340 337 336 334 333 333 333 331 329 326 324 319 316 315 314 315 316 317 318 318 319 318 317 318 320 321 319 317 316 315 311 308 312 316 315 313 312 310 304
202 201 200 199 197 195 194 194 192 191 187 180 172 170 170 177 183 194 249 313 358 342 345 345 343 342 337 335 343 352 350 285 160 92 349 336 57 17 359 2 4 1 356 352 351 348 346 339 335 335 332 330 328 325 321 320 322 317 311 309 309 312 313 314 314 316 317 316 315 316 317 318 316 314 313 312 310 307 306 309 310 311 311 311 310
203 202 201 200 198 197 197 197 195 192 186 180 178 177 178 183 190 207 245 300 24 12 358 0 2 345 332 325 340 357 1 208 177 325 341 344 100 351 351 13 6 357 350 347 351 352 348 340 336 337 335 330 323 318 314 316 319 317 311 308 307 309 311 311 312 314 315 313 312 313 314 314 314 313 312 312 312 310 307 305 305 306 306 306 307
205 203 203 202 201 201 200 198 197 194 190 186 183 183 186 187 191 212 234 353 44 42 12 16 7 345 334 315 342 2 353 28 239 316 331 142 341 342 354 0 351 341 338 342 350 349 345 341 337 338 338 333 327 319 315 315 317 316 311 308 307 308 309 310 312 313 313 311 310 312 312 313 312 312 312 312 311 309 306 304 302 301 300 300 302
207 206 205 203 202 203 201 199 198 197 196 193 190 189 191 192 195 208 215 137 82 82 30 21 11 3 7 302 312 60 339 341 316 317 302 244 329 341 350 343 339 335 338 343 346 341 339 338 336 337 336 334 329 324 321 320 320 319 314 310 308 307 306 308 311 312 311 310 310 311 312 312 311 311 311 310 309 306 304 302 300 298 297 297 297
208 207 206 204 203 202 202 201 198 197 197 196 195 192 192 195 199 209 218 197 103 109 91 26 12 16 35 313 321 346 267 312 324 310 266 303 320 336 341 341 342 340 340 339 338 335 334 335 335 337 336 333 331 328 328 328 327 327 324 320 315 311 309 309 312 312 311 310 310 310 310 310 310 310 310 309 307 305 303 301 299 297 296 295 295
208 208 207 205 204 202 202 201 199 198 198 196 194 193 194 196 196 205 221 254 5 65 128 11 6 348 322 160 202 260 292 325 336 295 297 308 310 329 337 345 349 340 334 332 333 332 331 332 334 335 333 332 332 333 333 334 334 333 330 326 321 316 313 312 313 312 311 310 309 308 307 308 309 309 308 307 306 304 301 299 298 297 295 293 293
209 208 207 206 204 203 202 201 201 199 198 196 195 195 195 194 196 203 215 227 345 3 294 302 347 180 214 195 226 275 308 329 341 313 318 308 301 322 333 344 340 333 331 332 333 333 331 331 331 330 331 333 334 335 336 337 338 337 334 330 325 320 317 316 316 313 312 310 308 307 306 307 308 308 307 306 304 302 300 298 296 295 294 293 292
212 210 208 207 205 204 202 201 200 199 199 199 197 195 192 194 198 201 207 209 293 326 293 293 298 202 219 250 273 292 306 314 310 301 312 302 310 322 327 326 327 330 332 332 333 334 331 327 326 327 331 333 336 338 338 339 340 339 338 334 329 325 321 319 317 315 314 311 310 307 305 306 306 306 305 303 303 301 298 296 294 293 292 291 292
213 212 210 208 206 205 204 202 200 199 200 199 196 196 195 198 201 201 206 201 208 280 282 277 272 252 262 287 296 302 309 314 315 301 267 277 307 322 322 324 327 326 326 327 329 329 325 323 324 326 329 332 337 339 338 339 340 338 336 333 329 324 319 316 313 311 308 304 302 303 304 305 304 304 303 301 300 299 297 295 292 291 290 290 289
212 213 212 210 207 207 206 205 203 201 201 198 196 197 196 199 202 204 208 202 200 239 258 256 250 248 256 271 283 300 316 320 331 336 303 268 271 290 306 317 322 317 319 323 322 320 322 324 326 326 327 332 337 338 337 338 337 334 332 327 323 318 312 311 309 308 306 302 301 302 303 303 303 303 302 301 300 297 296 294 292 290 288 288 287
211 212 212 211 209 209 209 208 206 204 203 201 199 198 197 197 200 203 206 202 201 217 235 240 236 238 242 248 256 265 271 260 275 300 295 264 275 285 289 295 292 296 308 316 316 318 322 325 328 331 333 334 336 336 335 336 335 331 326 321 317 313 310 310 312 312 311 309 308 306 305 304 302 301 300 300 300 297 296 294 293 291 287 285 284
211 211 211 210 209 209 209 209 208 207 206 204 202 200 197 197 199 203 206 203 202 215 225 225 226 231 234 241 249 255 261 266 279 289 288 286 290 285 290 300 291 279 293 304 310 317 323 328 336 339 333 331 333 335 335 333 330 325 321 318 315 312 309 309 311 312 309 308 307 305 303 300 299 296 293 294 295 293 292 291 292 292 288 285 282
211 211 211 209 208 209 208 208 208 208 207 205 203 200 199 200 201 204 207 207 211 219 220 218 222 226 229 236 242 252 263 271 282 291 298 303 303 297 297 302 294 288 295 296 300 312 319 328 337 336 330 331 333 334 332 327 323 322 319 317 313 308 305 304 305 306 306 305 304 303 301 298 298 296 293 291 290 289 289 286 286 287 287 286 283
211 212 212 210 208 209 209 208 208 208 207 204 203 202 201 202 203 206 209 210 213 217 216 216 218 222 229 234 240 251 259 269 281 291 302 308 308 309 309 306 294 290 297 294 293 301 303 319 333 338 335 333 332 328 324 323 321 319 316 313 311 308 307 307 308 309 309 308 307 305 303 301 300 299 297 293 289 288 287 286 284 282 282 282 280
213 213 213 211 209 208 208 208 208 207 205 204 203 202 202 202 202 205 208 209 211 213 214 216 220 224 228 233 240 249 256 268 281 288 296 301 303 307 312 315 304 295 298 292 288 288 294 318 337 344 338 329 322 319 317 317 317 315 314 313 312 311 310 311 312 312 312 311 309 307 306 305 303 301 300 298 293 289 288 288 286 283 281 281 279
215 214 213 211 210 208 207 207 206 205 204 203 203 202 202 201 201 204 206 208 210 211 211 215 220 223 225 231 240 248 257 269 278 284 289 290 294 298 302 307 308 310 310 294 290 299 311 332 342 341 338 322 308 311 312 313 313 313 313 313 310 310 310 311 310 310 309 308 306 304 303 301 300 298 297 295 292 290 288 288 287 285 284 283 281
215 214 213 212 210 209 207 206 204 203 203 203 203 203 202 201 202 205 207 207 208 207 209 213 217 220 223 228 237 248 258 267 273 279 283 283 285 286 288 292 292 299 309 304 312 309 309 326 336 336 333 317 306 310 311 310 311 311 311 309 308 308 309 308 307 307 306 305 304 303 302 300 297 296 294 293 291 289 287 286 285 284 284 283 281
215 214 213 211 209 208 207 205 203 202 202 202 202 202 202 202 203 206 206 206 206 205 207 212 215 219 223 229 238 248 256 264 271 275 275 275 278 279 280 282 280 279 284 296 304 278 292 320 333 321 317 314 311 312 310 309 310 312 311 309 308 308 307 307 306 306 305 304 303 303 301 299 297 295 293 292 291 290 289 287 285 283 282 282 280
215 214 213 211 209 208 207 205 202 200 201 201 200 200 201 202 203 203 203 204 205 205 207 211 215 219 223 230 239 246 254 262 265 267 267 266 266 268 270 271 272 274 279 291 294 273 286 308 307 304 310 310 310 311 310 310 313 313 311 309 308 307 307 306 304 304 303 301 300 299 299 297 295 293 291 291 291 290 289 287 286 283 281 281 279
215 214 214 213 210 208 206 205 203 200 200 200 200 200 201 202 203 202 201 202 204 205 206 210 214 219 223 228 237 243 250 256 258 259 259 259 260 262 264 266 267 271 280 287 282 280 287 293 297 303 309 308 309 311 311 311 312 311 309 307 308 309 308 307 305 304 301 300 299 298 297 296 295 293 291 291 290 289 289 287 285 284 281 280 279
215 214 214 213 211 208 206 205 204 202 201 200 200 201 201 201 202 202 201 201 202 202 205 208 212 217 222 227 234 240 245 249 252 255 256 257 260 262 263 266 267 268 274 278 279 286 291 293 297 303 308 311 310 312 313 311 309 309 309 308 310 311 311 309 307 305 301 299 299 298 297 295 294 293 291 291 291 290 289 287 285 284 281 279 278
215 214 213 212 210 208 206 205 204 204 203 202 201 201 201 200 199 200 200 200 200 200 203 206 210 215 222 227 232 237 242 246 248 251 254 257 260 263 264 264 266 265 264 272 279 286 291 295 300 303 308 313 312 311 314 311 309 309 309 308 310 310 310 308 306 305 302 298 298 297 296 295 293 292 291 291 292 290 288 287 285 283 282 280 278
214 213 212 211 208 206 205 204 204 204 203 203 202 202 201 201 199 199 199 200 200 200 202 206 210 215 220 225 231 235 238 241 244 248 251 255 257 261 262 259 260 262 257 263 274 281 290 295 298 303 308 312 310 309 311 309 307 309 309 309 309 307 307 306 304 302 300 297 297 296 295 295 293 291 291 291 291 291 289 286 285 283 282 280 278
213 212 211 210 207 205 203 203 203 203 203 203 203 203 203 202 201 200 198 199 200 202 205 208 211 216 221 224 228 233 236 238 241 244 245 249 252 250 251 251 251 259 261 259 266 277 288 293 295 299 304 306 305 305 307 307 307 308 308 308 308 306 304 304 301 299 299 296 295 295 294 295 293 290 289 289 289 289 288 285 284 284 282 280 278
211 209 208 207 206 204 203 203 203 203 203 203 203 203 202 202 201 200 199 199 201 203 207 210 213 218 222 226 229 231 233 234 236 239 239 240 242 236 238 246 244 255 267 268 272 279 282 285 291 296 299 300 301 301 304 307 308 308 307 306 306 304 303 304 301 298 300 300 297 296 294 291 290 288 287 287 287 287 285 285 284 283 282 281 279
208 206 205 205 205 204 204 204 203 203 204 203 203 202 200 199 199 199 199 200 202 204 207 211 216 221 224 227 230 231 231 232 234 236 237 233 232 234 235 242 250 260 267 270 276 277 273 276 284 290 294 295 297 299 302 305 305 306 306 304 304 303 302 304 303 300 301 300 297 296 293 290 288 286 285 286 285 285 284 284 284 282 281 281 280
205 204 203 203 204 205 204 204 204 204 203 201 201 200 198 198 198 198 199 200 202 204 208 213 217 223 228 229 231 232 231 234 236 235 234 230 230 236 239 244 256 263 264 266 269 268 267 273 277 282 287 290 292 294 296 300 299 297 300 302 304 307 303 299 299 300 301 299 297 294 291 289 287 284 284 284 282 283 284 282 282 282 280 282 284
203 203 202 202 203 203 204 205 205 204 202 199 199 198 198 198 198 198 198 199 201 204 207 215 219 223 228 229 230 233 234 237 239 236 233 232 233 237 241 250 258 261 262 260 261 260 261 267 271 275 281 283 285 287 289 294 292 288 295 298 297 301 303 299 296 297 299 300 299 297 292 288 285 284 284 283 280 280 282 281 282 284 284 286 286
203 203 202 202 201 201 202 203 203 201 200 200 200 199 198 197 197 197 198 199 202 204 207 212 218 222 226 228 229 234 238 237 232 230 231 233 238 243 249 256 258 258 258 254 252 253 254 260 266 271 276 276 277 281 283 284 284 286 293 293 287 291 298 298 296 296 299 299 297 295 294 290 286 286 286 285 285 284 284 285 286 285 286 285 282
200 200 200 200 200 200 200 200 199 199 199 200 201 200 199 199 197 196 197 199 201 204 206 209 214 219 222 226 230 233 232 228 224 226 231 234 240 250 258 262 259 255 253 252 253 254 254 257 261 264 269 269 270 275 276 277 283 288 290 289 288 293 298 297 296 296 299 299 295 293 295 296 293 289 287 286 287 287 287 288 286 283 283 282 280
198 198 197 197 198 199 199 198 198 198 199 201 200 199 199 200 200 197 196 198 199 202 205 206 209 214 218 222 227 224 220 221 224 226 231 236 242 250 255 258 259 256 253 254 257 258 256 256 258 257 260 267 271 276 278 281 288 290 290 292 294 296 298 297 295 296 297 298 296 294 295 296 294 290 287 285 284 284 284 285 283 280 280 280 279
195 195 195 195 196 197 197 197 198 198 200 201 199 198 198 199 200 199 197 196 197 199 202 205 209 211 213 215 218 221 220 221 224 227 231 237 242 248 254 258 259 260 261 261 264 267 265 264 267 267 268 276 282 284 285 288 292 292 292 292 290 289 290 288 285 288 290 291 292 291 291 291 290 287 285 283 281 281 282 282 280 277 277 279 279
193 193 193 194 194 195 196 197 198 200 201 199 196 195 195 196 198 198 197 197 197 198 200 204 208 209 209 210 211 218 224 222 223 229 234 241 247 253 258 260 261 261 264 266 267 270 273 276 279 278 276 280 282 283 285 288 290 290 289 288 285 283 281 279 277 279 283 285 285 285 285 285 285 283 280 281 281 279 280 282 279 275 277 279 279
191 192 192 193 194 195 196 197 198 200 200 197 193 190 189 191 196 196 195 194 195 197 199 203 210 212 212 212 212 219 228 231 231 235 242 251 257 261 264 265 265 264 263 265 269 271 273 274 273 274 275 273 273 277 282 284 284 283 284 284 283 280 277 276 276 277 279 279 277 276 278 280 281 278 275 279 281 278 279 281 278 276 277 279 278
192 193 192 193 194 194 196 196 196 199 199 194 189 186 184 184 189 191 191 190 193 197 201 206 212 213 212 215 222 232 239 243 246 248 255 262 264 265 267 266 267 268 267 267 271 273 272 270 269 271 274 274 273 277 281 283 283 281 281 281 280 279 279 279 279 278 278 277 272 265 267 276 278 276 273 277 280 279 280 281 278 277 278 278 278
192 193 193 193 193 193 194 195 195 197 197 191 185 185 183 179 181 187 190 192 193 195 199 204 209 212 217 225 235 242 244 249 257 256 257 265 268 269 271 271 273 275 273 272 273 274 275 275 276 279 282 281 281 283 283 285 286 286 288 287 284 282 280 278 278 277 277 279 272 258 255 267 273 274 276 279 280 279 280 281 279 278 278 277 276
190 191 192 192 192 192 192 193 195 196 193 187 183 184 182 178 181 186 189 189 190 193 199 205 210 217 227 234 235 239 248 258 262 259 258 266 272 275 279 281 278 275 274 276 277 278 280 283 283 284 284 284 284 285 286 287 287 290 294 291 287 287 285 280 278 278 279 281 276 261 259 269 276 280 283 283 281 279 279 280 280 278 276 274 272
189 190 190 190 191 193 193 193 195 195 190 185 183 184 181 180 183 187 188 187 189 194 199 204 214 223 228 230 232 241 253 258 258 258 262 268 273 278 279 278 276 275 279 284 286 287 288 287 285 283 282 284 287 288 289 288 287 287 287 283 283 285 284 279 279 282 282 280 274 268 268 274 278 280 281 282 280 276 275 278 278 275 271 270 270
188 188 188 188 189 191 193 193 194 194 189 183 183 185 181 181 187 191 189 187 188 193 197 202 213 221 222 224 230 237 244 252 257 262 265 266 271 277 278 278 280 282 287 290 290 292 291 287 285 286 286 288 290 291 290 288 285 282 278 276 278 278 273 271 272 277 282 279 275 269 264 268 275 276 274 277 281 277 276 276 274 271 270 271 273